Вернуться в каталог

DELTA 1 DEB

АктивенPO
NORAD 12227·DEBRIS·🇺🇸 United States

Запущен Mar 5, 1978 с Vandenberg Space Force Base

Loading…

Ближайшие Пролёты (ближайшие 24 часа)

TLE

СвежийSource: Space-Track

Эпоха: Sep 14, 2026, 01:27 UTC

1 12227U 78026BU  26257.06074630  .00003230  00000-0  26964-3 0  9993
2 12227  98.7837 106.5644 0063249 274.2539  85.1454 14.97911259413205

Отслеживайте DELTA 1 DEB в реальном времени с AllMySat

Download on the App Store